www.pogodaiklimat.ru

Погода и климат >> Архив погоды >> Украина >> Винница


АРХИВ ПОГОДЫ в Виннице

Время (UTC), дата Ветер
(напр.,м/с)
 
Видим.   Явления Облачность Т
(С)
Тd
(С)
f
(%)
Тe
(С)
Тes
(С)
Комфортность P
(гПа)
Po
(гПа)
Тmin
(С)
Tmax
(С)
R
(мм)
R24
(мм)
S
(см)
00 18.03 ЮВ 5 13 км 6/0
[Ci]
+5.0 +1.0 75 +1 +1 тепло 1013.0 976.9
03 18.03 ЮВ 5 13 км 5/0
[Ci fib]
+3.8 -1.7 67 -1 -1 по сезону 1012.7 976.4
06 18.03 ЮВ 5 13 км 3/0
[Ci fib]
+4.3 +0.7 77 -0 +1 тепло 1013.0 976.8 +3.0
09 18.03 ЮВ 7 13 км 3/0
[Ci fib]
+13.6 +4.1 53 +11 +14 тепло 1011.3 976.3
12 18.03 Ю 8 13 км 6/0
[Ci fib]
+18.6 +4.6 40 +18 +19 тепло 1010.6 976.2
15 18.03 Ю 5 13 км 8/0
[Ac trans Ci fib]
+18.6 +4.6 40 +19 +19 тепло 1010.5 976.1
18 18.03 Ю 5 13 км 6/0
[Ac trans Ci fib]
+14.3 +4.8 53 +13 +13 тепло 1013.0 978.0 +19.4
21 18.03 Ю 5 13 км 8/3 600 м
[Sc Ac trans]
+10.3 +3.0 61 +8 +8 тепло 1016.0 980.4
00 19.03 Ю 3 13 км слаб. ливневой дождь 10/5 720 м
[Cb cap Ac und]
+8.6 +5.3 80 +6 +6 тепло 1017.1 981.3 0.4
03 19.03 ЮЗ 2 13 км слаб. ливневой дождь 10/6 600 м
[Cb cap Ac und]
+5.8 +4.4 91 +3 +3 тепло 1018.7 982.5
06 19.03 С 2 13 км {ливн. осадки} 9/0
[Ac und]
+5.6 +3.7 88 +3 +4 тепло 1019.9 983.6 +4.7 0.4
09 19.03 С 3 13 км 10/10 500 м
[St]
+6.7 +3.7 81 +4 +4 тепло 1022.0 985.8
12 19.03 С 3 13 км слаб. ливневой дождь 10/8 630 м
[Cb cap Ac und]
+7.7 +3.8 76 +5 +5 по сезону 1022.4 986.3
15 19.03 С 2 13 км {ливн. осадки} 10/6 700 м
[Cb cap Ac und]
+7.3 +3.8 78 +5 +5 тепло 1022.7 986.5
18 19.03 штиль 0 13 км слаб. ливневой дождь 10/8 570 м
[Cb cap Ac und]
+6.9 +3.9 81 +6 +6 тепло 1024.4 988.1 +8.4 0.8
21 19.03 штиль 0 8000 м слаб. ливневой дождь 10/8 500 м
[Cb cap Ac und]
+5.1 +3.9 92 +4 +4 тепло 1025.9 989.3
00 20.03 СВ 2 13 км слаб. ливневой дождь 10/8 540 м
[Cb cap Ac und]
+4.4 +3.7 95 +1 +1 тепло 1026.2 989.5
03 20.03 СЗ 4 13 км слаб. ливневой дождь 10/8 480 м
[Cb cap Ac und]
+4.0 +3.3 95 -1 -1 по сезону 1027.2 990.4
06 20.03 С 3 13 км {ливн. осадки} 10/5 500 м
[Cb cap Ac und]
+3.4 +1.6 88 -1 -0 по сезону 1028.8 991.9 +3.2 9
09 20.03 С 5 13 км 8/4 600 м
[Sc Ac trans]
+6.0 +1.5 73 +2 +4 по сезону 1029.6 993.0
12 20.03 С 3 13 км 8/4 1000 м
[Sc Ac trans]
+8.4 -1.5 50 +6 +9 тепло 1029.4 993.1
15 20.03 С 6 13 км 6/3 600 м
[Sc Ac trans]
+7.8 -4.3 42 +4 +4 тепло 1029.7 993.3
18 20.03 С 3 13 км 8/3 1000 м
[Sc Ac trans]
+4.5 -4.3 53 +2 +2 по сезону 1031.4 994.5 +9.6
21 20.03 З 3 13 км 4/0
[Ac trans]
+2.4 -3.9 63 -1 -1 по сезону 1032.2 995.1
00 21.03 З 2 13 км ясно +1.4 -4.1 67 -2 -2 по сезону 1032.6 995.3
03 21.03 ЮЗ 3 13 км ясно 0.0 -4.2 73 -4 -4 по сезону 1032.1 994.6
06 21.03 З 4 13 км 8/0
[Ac trans Ci fib]
+1.1 -3.1 74 -4 -3 по сезону 1031.4 994.3 -0.5
09 21.03 З 6 13 км 9/3 600 м
[Sc Ac trans Ci fib]
+7.4 -1.9 52 +4 +5 тепло 1029.6 993.2
12 21.03 СЗ 7 13 км слаб. ливневой дождь 10/5 930 м
[Cb cap Ac und]
+7.6 +0.9 62 +3 +4 по сезону 1028.7 992.3
15 21.03 З 5 13 км {ливн. осадки} 9/4 600 м
[Cb cap Ac trans]
+6.9 +2.8 75 +3 +3 по сезону 1028.2 991.8
18 21.03 З 4 13 км {ливн. осадки} 6/3 1000 м
[Sc Ci fib]
+5.5 +3.1 85 +2 +2 по сезону 1028.8 992.2 +9.5 0.3
21 21.03 З 2 6000 м дымка 9/0
[Ac trans]
+4.0 +2.5 90 +1 +1 по сезону 1029.1 992.3
00 22.03 З 3 6000 м дымка 9/0
[Ac trans Ci fib]
+3.8 +2.6 92 -0 -0 по сезону 1028.5 991.7
03 22.03 З 4 4600 м дымка 3/0
[Ci fib]
+3.1 +2.1 93 -2 -2 по сезону 1027.6 990.7
06 22.03 З 5 9000 м дымка 9/4 600 м
[Sc Ac trans]
+4.1 +3.1 93 -1 -1 по сезону 1026.8 990.1 +2.8
09 22.03 З 7 9000 м в посл. час ливневой дождь 10/6 500 м
[Cb cap Ac und]
+8.9 +7.4 90 +5 +5 тепло 1025.2 989.2
12 22.03 З 7 13 км {ливн. осадки} 10/6 600 м
[Sc Ac und]
+10.2 +4.9 70 +7 +7 тепло 1023.2 987.4
15 22.03 СЗ 7 13 км 8/5 700 м
[Sc Ac trans]
+10.7 +4.5 65 +7 +8 тепло 1021.8 986.1
18 22.03 СЗ 5 13 км 4/4 600 м
[Sc]
+9.3 +1.7 59 +6 +6 тепло 1023.7 987.7 +11.6 0.0
21 22.03 СЗ 5 13 км 3/0
[Ac trans]
+5.2 -6.5 43 +1 +1 по сезону 1025.3 988.7
00 23.03 СЗ 5 13 км {ливн. осадки} 4/0
[Ac trans]
+3.0 -7.7 45 -2 -2 по сезону 1025.8 988.9
03 23.03 СЗ 5 13 км 3/0
[Ac trans]
-1.2 -7.8 61 -7 -7 прохладно 1025.9 988.4
06 23.03 СЗ 6 13 км ясно +1.1 -6.0 59 -5 -4 по сезону 1026.4 989.2 -1.6
09 23.03 СЗ 8 13 км 3/0
[Ac trans]
+5.0 -6.4 43 -0 +1 по сезону 1025.5 988.9
12 23.03 СЗ 6 13 км 3/0
[Ac trans]
+7.5 -7.4 34 +4 +7 по сезону 1024.2 987.9
15 23.03 С 7 13 км 3/0
[Ci fib]
+8.3 -3.8 42 +5 +5 по сезону 1023.6 987.5
18 23.03 СЗ 2 13 км ясно +4.0 -3.9 56 +2 +2 по сезону 1024.6 987.9 +9.2
21 23.03 ЮЗ 2 13 км ясно +3.3 -3.4 61 +1 +1 по сезону 1024.6 987.8
00 24.03 ЮЗ 2 13 км 6/0
[Ci fib]
+0.8 -4.5 68 -2 -2 по сезону 1023.9 986.8
03 24.03 ЮЗ 3 13 км 8/0
[Ac trans Ci fib]
-0.2 -5.2 69 -5 -5 по сезону 1022.5 985.3
06 24.03 ЮЗ 2 13 км 6/0
[Ac trans]
+2.2 -5.3 58 -1 +1 по сезону 1020.7 983.9 -0.3
09 24.03 З 3 13 км 10/4 600 м
[Cb cap Ac und]
+7.2 -5.6 40 +5 +6 тепло 1019.0 982.9
12 24.03 СЗ 8 13 км {ливн. осадки} 9/3 600 м
[Sc Ac trans]
+12.6 -1.9 36 +10 +11 тепло 1016.1 980.8 0.0
15 24.03 СЗ 6 13 км 3/0
[Ac trans]
+11.8 0.0 44 +9 +10 тепло 1015.4 980.0
18 24.03 СЗ 4 13 км 3/0
[Ac trans]
+6.3 -2.0 55 +3 +3 по сезону 1016.7 980.6 +12.7 0.0
21 24.03 З 2 13 км ясно +4.2 -1.8 65 +2 +2 по сезону 1016.7 980.3

 

Местоположение метеостанции Винница (Винницкая область, Украина): широта 49.23 долгота 28.60 высота над уровнем моря 298 м.

В архиве по умолчанию представлена погода в Виннице за последнюю неделю. Архивные данные за месяц целиком и за предыдущие месяцы, начиная с января 2011 года, Вы можете получить, выбрав интересующий диапазон дат из раскрывающегося списка и нажав кнопку "Ввод!".


*Определитесь, кто Вы:
робот инопланетянин человек

Внимание! Время в таблицах - всемирное. Для получения местного времени необходимо прибавить поправку, которая равна 2 ч.

Смотрите также архив погоды в соседних городах и на ближайших метеорологических станциях:

Погода в Жмеринке (Винницкая область, Украина) (42 км)
Погода в Белополе (Винницкая область, Украина) (70 км)
Погода в Гайсине (Винницкая область, Украина) (75 км)
Погода в Хмельнике (Винницкая область, Украина) (76 км)
Погода в Могилев-Подольском (Винницкая область, Украина) (105 км)
Погода в Новой Ушице (Хмельницкая область, Украина) (106 км)
Погода в Жашкове (Черкасская область, Украина) (109 км)
Погода в Житомире (Житомирская область, Украина) (112 км)
Погода в Новоднестровске (Черновицкая область, Украина) (112 км)
Погода в Сороках (Молдова) (117 км)

Пояснения к столбцам:

Ветер - указаны скорость ветра в м/с - средняя за 10 мин, порывы в срок и между сроками (в фигурных скобках) и направление, откуда дует ветер: С - северный, СВ - северо-восточный, В - восточный, ЮВ - юго-восточный, Ю - южный, ЮЗ - юго-западный, З - западный, СЗ - северо-западный.
Видимость - горизонтальная дальность видимости в метрах или километрах. При видимости от 1 до 10 км при отсутствии осадков обычно наблюдается дымка, при ухудшении видимости до 1 км и менее - туман. В сухую погоду видимость может ухудшаться дымом, пылью или мглою.
Явления - указаны атмосферные явления, наблюдавшиеся в срок или в последний час перед сроком; фигурными скобками обозначены явления, наблюдавшиеся между сроками (за 1-3 часа до срока); квадратными скобками обозначены град или гололедные отложения с указанием их диаметра в мм.
Облачность - указаны через наклонную черту общая и нижняя облачность в баллах и высота нижней границы облаков в метрах; квадратными скобками обозначены формы облаков: Ci - перистые, Cs - перисто-слоистые, Cc - перисто-кучевые, Ac - высококучевые, As - высокослоистые, Sc - слоисто-кучевые, Ns - слоисто-дождевые, Cu - кучевые, Cb - кучево-дождевые. Подробнее классификацию облаков см. в Атласе облаков (PDF).
T - Температура воздуха - температура, измеренная на высоте 2 м над землей.
Td - Температура точки росы - температура, при понижении до которой содержащийся в воздухе водяной пар достигнет насыщения.
f - Относительная влажность воздуха - влажноcть воздуха, измеренная на высоте 2 м над землей.
Te - Эффективная температура - температура, которую ощущает одетый по сезону человек в тени. Характеристика душности погоды. При расчете учитывается влияние влажности воздуха и скорости ветра на теплоощущения человека.
Tes - Эффективная температура на солнце - температура, которую ощущает человек, с поправкой на солнечный нагрев. Характеристика знойности погоды. Зависит от высоты солнца над горизонтом, облачности и скорости ветра. Ночью, в пасмурную погоду, а также при ветре 12 м/с и более поправка равна нулю.
P - Атмосферное давление - приведенное к уровню моря атмосферное давление.
Po - Атмосферное давление - измеренное на уровне метеостанции атмосферное давление.
Tmin - Минимальная температура - минимум температуры воздуха на высоте 2 м над землей.
Tmax - Максимальная температура - максимум температуры воздуха на высоте 2 м над землей.
R - Количество осадков - Количество выпавших осадков за период времени, мм. При наведении курсора мыши на число - период времени, за который выпало указанное количество осадков.
R24 - Количество осадков - Количество выпавших осадков за 24 часа, мм.
S - Снежный покров - Высота снежного покрова, см. При наведении курсора мыши на число - состояние снежного покрова и степень покрытия местности в баллах.